Regional Weather Roundup
Issued by NWS Burlington, VT

Home | Current Version | Previous Version | Text Only | Print | Product List | Glossary On
Versions: 1 2 3 4 5 6 7 8 9 10 11 12 13 14 15 16 17 18 19 20 21 22 23 24 25 26 27 28 29 30 31 32 33 34 35 36 37 38 39 40 41 42 43 44 45 46 47 48 49 50
000
ASUS41 KBTV 120630
RWRBTV
VERMONT REGIONAL WEATHER ROUNDUP
NATIONAL WEATHER SERVICE BURLINGTON VT
100 AM EST FRI FEB 12 2016

NOTE: "FAIR" INDICATES FEW OR NO CLOUDS BELOW 12,000 FEET WITH NO
SIGNIFICANT WEATHER AND/OR OBSTRUCTIONS TO VISIBILITY.

* THESE REPORTS ARE NOT UNDER NWS QUALITY CONTROL AND/OR DO NOT
  REPORT WEATHER SUCH AS PRECIPITATION AND FOG.

VTZ001>019-120700-
_____VERMONT_____


CITY           SKY/WX    TMP DP  RH WIND       PRES   REMARKS
BURLINGTON     CLOUDY     4  -8  57 NW9       30.13R WCI -10
6HR MIN TEMP:   3; 6HR MAX TEMP:   6; 6HR PCP: TRACE;

MONTPELIER     CLOUDY    -2  -9  72 NW10G22   30.04R HAZE    WCI -19
6HR MIN TEMP:  -3; 6HR MAX TEMP:   2; 6HR PCP: TRACE;

MORRISVILLE    CLOUDY     2  -9  60 NW8       30.06R HAZE    WCI -12
6HR MIN TEMP:   1; 6HR MAX TEMP:   3; 6HR PCP: TRACE;

ST. JOHNSBURY*   N/A      1 -11  57 MISG      30.04R
6HR MIN TEMP:   0; 6HR MAX TEMP:   4;

LYNDONVILLE*   MOCLDY    -3 -10  72 SW6       30.00R WCI -15
6HR MIN TEMP:  -3; 6HR MAX TEMP:   0;

RUTLAND*       FAIR       1  -6  71 N3        30.06R
6HR MIN TEMP:   1; 6HR MAX TEMP:   9;

SPRINGFIELD    FAIR       3  -7  63 NW6       30.07S WCI  -8
6HR MIN TEMP:   3; 6HR MAX TEMP:   8; 6HR PCP: TRACE;

HIGHGATE*      FAIR      -1  -9  70 CALM      30.14R
6HR MIN TEMP:  -1; 6HR MAX TEMP:   1;

NEWPORT*       LGT SNOW  -3  -8  77 W7        30.02R WCI -16
6HR MIN TEMP:  -3; 6HR MAX TEMP:  -1;

BENNINGTON     FAIR       3  -9  57 NW3       30.09R
6HR MIN TEMP:   3; 6HR MAX TEMP:   9;

SUTTON*          N/A     -6 N/A N/A MISG        N/A
GALLUP MILLS*    N/A     -6 N/A N/A MISG        N/A
UNION VILLAGE*   N/A      0 N/A N/A MISG        N/A
MT. MANSFIELD*   N/A    -15 N/A N/A NW52        N/A  WCI -53

_____LAKE CHAMPLAIN_____


CITY           SKY/WX    TMP DP  RH WIND       PRES   REMARKS
DIAMOND ISL*     N/A      7  -4  61 NW9         N/A  WCI  -7

$$

NYZ007-026>031-035-052-083-120700-
_____NORTHERN NEW YORK_____


CITY           SKY/WX    TMP DP  RH WIND       PRES   REMARKS
PLATTSBURGH    CLEAR     -4 -11  72 SW3       30.14R
6HR MIN TEMP:  -5; 6HR MAX TEMP:   4;

SARANAC LAKE   CLEAR    -13 -17  82 S7        29.98R WCI -29
6HR MIN TEMP: -14; 6HR MAX TEMP:  -4;

MASSENA        CLEAR     -7 -13  75 SW6       30.18S WCI -20
6HR MIN TEMP:  -9; 6HR MAX TEMP:   2;

OGDENSBURG*    CLEAR    -17 -20  83 S3        30.15S
WATERTOWN      CLEAR     -8 -13  78 SE3       30.17F
6HR MIN TEMP:  -9; 6HR MAX TEMP:   6;

ALBANY         CLEAR      7  -5  57 NW8       30.17R WCI  -6
6HR MIN TEMP:   7; 6HR MAX TEMP:  12; 6HR PCP: TRACE;

GLENS FALLS    PTCLDY     0  -9  65 CALM      30.15S
6HR MIN TEMP:  -1; 6HR MAX TEMP:  10;


$$
NHZ002-005-011-120700-
_____NEW HAMPSHIRE_____


CITY           SKY/WX    TMP DP  RH WIND       PRES   REMARKS
LEBANON        PTCLDY     3  -9  57 W3        30.06R
6HR MIN TEMP:   3; 6HR MAX TEMP:  12; 6HR PCP: TRACE;

MT WASHINGTON  BLWGSNOW -27 -27 100 W71G84      N/A  VSB 1/16WCI -75
6HR MIN TEMP: -28; 6HR MAX TEMP: -16;

PLYMOUTH       FAIR       1 -12  55 W6        30.03R WCI -10
6HR MIN TEMP:   1; 6HR MAX TEMP:  11;

WHITEFIELD     CLOUDY    -3 -12  65 SW5       30.00R WCI -13
6HR MIN TEMP:  -3; 6HR MAX TEMP:   5; 6HR PCP: TRACE;


$$

_____REGIONAL QUEBEC LOCATIONS_____


CITY           SKY/WX    TMP DP  RH WIND       PRES   REMARKS
MONTREAL       PTCLDY     0  -9  65 W9        30.13S WCI -16
QUEBEC CITY    FLURRIES   0  -9  65 W15       29.96R WCI -20
SHERBROOKE     PTCLDY    -4  -9  77 W13       29.99R WCI -23

_____REGIONAL ONTARIO LOCATIONS_____


CITY           SKY/WX    TMP DP  RH WIND       PRES   REMARKS
OTTAWA         CLEAR     -6 -13  71 SW6       30.12F WCI -18

______KEY______
VSB  - VISIBILITY IN MILES
WCI  - WIND CHILL INDEX
HX   - HEAT INDEX
$$
NNNN



USA.gov is the U.S. government's official web portal to all federal, state and local government web resources and services.